Location: Newark
(49.3000°N, 9.4667°E)
Time: 23:31:26
(UTC+00:00)

Tiros 1 - Pass Details

Date: 24 May 2019
Orbit: 631 x 664 km, 48.4° (Epoch: 18 June)

Event Time Altitude Azimuth Distance (km) Brightness Sun altitude
Rises 15:44:10 0° 282° (WNW) 2,961 11.6 30.9°
Reaches altitude 10° 15:46:57 10° 266° (W) 2,054 11.4 30.5°
Maximum altitude 15:50:29 21° 218° (SW) 1,461 9.8 29.9°
Drops below altitude 10° 15:54:02 10° 169° (S) 2,061 9.7 29.3°
Sets 15:56:50 0° 154° (SSE) 2,974 10.3 28.9°
